This is the latest recevied weather packets stored in our database for station/object NU3S-7. If no packets are shown the sender has not sent any weather packets the latest 10 day(s).
| Time | Temp. | Humidity | Pressure | Rain* | Wind** | Luminosity | Snow |
|---|---|---|---|---|---|---|---|
| 1777795983 | 1.67° C | 100% | 1016.2 hPa | 0 mm | - | - | - |
| 1777795383 | 1.67° C | 100% | 1016.3 hPa | 0 mm | - | - | - |
| 1777794181 | 1.67° C | 100% | 1016.1 hPa | 0 mm | - | - | - |
| 1777793581 | 1.67° C | 100% | 1016.1 hPa | 0 mm | - | - | - |
| 1777792980 | 1.11° C | 100% | 1016.1 hPa | 0 mm | - | - | - |
| 1777792380 | 1.11° C | 100% | 1016 hPa | 0 mm | - | - | - |
| 1777791780 | 1.11° C | 100% | 1016 hPa | 0 mm | - | - | - |
| 1777791179 | 1.11° C | 100% | 1016 hPa | 0 mm | - | - | - |
| 1777790579 | 1.67° C | 100% | 1016.1 hPa | 0 mm | - | - | - |
| 1777789978 | 1.67° C | 100% | 1016.1 hPa | 0 mm | - | - | - |
| 1777789378 | 1.67° C | 100% | 1016.1 hPa | 0 mm | - | - | - |
| 1777788809 | 1.67° C | 100% | 1016.1 hPa | 0 mm | - | - | - |
| 1777788778 | 1.67° C | 100% | 1016.1 hPa | 0 mm | - | - | - |
| 1777788177 | 1.67° C | 100% | 1016.2 hPa | 0 mm | - | - | - |
| 1777787007 | 1.11° C | 99% | 1016.2 hPa | 0 mm | - | - | - |
| 1777786977 | 1.11° C | 99% | 1016.2 hPa | 0 mm | - | - | - |
| 1777786376 | 1.11° C | 99% | 1016.2 hPa | 0 mm | - | - | - |
| 1777785175 | 1.67° C | 99% | 1016.2 hPa | 0 mm | - | - | - |
| 1777783974 | 2.22° C | 98% | 1016.3 hPa | 0 mm | - | - | - |
| 1777783374 | 2.22° C | 98% | 1016.2 hPa | 0 mm | - | - | - |
| 1777780372 | 2.78° C | 97% | 1016.2 hPa | 0 mm | - | - | - |
| 1777779172 | 2.78° C | 97% | 1016.2 hPa | 0 mm | - | - | - |
| 1777776770 | 3.89° C | 95% | 1016.3 hPa | 0 mm | - | - | - |
| 1777776168 | 3.89° C | 95% | 1016.3 hPa | 0 mm | - | - | - |
| 1777773906 | 4.44° C | 93% | 1016.4 hPa | 0 mm | - | - | - |
* Rain since midnight (hover to see other rain measurements)
** Current wind speed in m/s (hover to see current wind gust speed)